Stations météo

réclame
Mon MeteoGroup
Manschnow, Allemagne (10396): Température de l'air & dewpoint: 16.11.2019 04:00:00 - 22.11.2019 04:00:00 (CET)Manschnow, Allemagne (10396): Température de l'air 5cm & Température de l'air -5cm: 16.11.2019 04:00:00 - 22.11.2019 04:00:00 (CET)Manschnow, Allemagne (10396): Température de l'air -20cm & Température de l'air -100cm: 16.11.2019 04:00:00 - 22.11.2019 04:00:00 (CET)Manschnow, Allemagne (10396): Vitesse du vent & gusts: 16.11.2019 04:00:00 - 22.11.2019 04:00:00 (CET)Manschnow, Allemagne (10396): Direction du vent: 16.11.2019 04:00:00 - 22.11.2019 04:00:00 (CET)Manschnow, Allemagne (10396): reduced air pressure: 16.11.2019 04:00:00 - 22.11.2019 04:00:00 (CET)Manschnow, Allemagne (10396): visibility: 16.11.2019 04:00:00 - 22.11.2019 04:00:00 (CET)Manschnow, Allemagne (10396): Ensoleillement: 16.11.2019 04:00:00 - 22.11.2019 04:00:00 (CET)Manschnow, Allemagne (10396): Quantités de précipitations: 16.11.2019 04:00:00 - 22.11.2019 04:00:00 (CET)
Date & Time tt [°C] td [°C] tt 5cm [°C] tt -5cm [°C] tt -20cm [°C] tt -100cm [°C] ff [km/h] ff [knt] fx [km/h] fx [knt] dd ppp [hPa] vv [km] sd [min] rr [mm]
22.11.2019 04:00:00 9,7 8,0 8,6 8,4 8,2 9,7 16 9 23 12 SE 1010,0 11 0 0,0
22.11.2019 03:00:00 9,6 8,3 8,6 8,5 8,2 9,7 13 7 20 11 SE 1009,9 7 0 0,0
22.11.2019 02:00:00 9,6 8,7 8,9 8,6 8,2 9,7 11 6 16 8 ESE 1009,8 5 0 0,0
22.11.2019 01:00:00 9,6 8,9 8,9 8,6 8,2 9,7 9 5 12 7 ESE 1009,6 4,6 0 0,3
22.11.2019 00:00:00 9,4 9,0 8,9 8,7 8,2 9,7 6 4 11 6 E 1009,7 2,4 0 0,1
21.11.2019 23:00:00 9,4 9,0 8,9 8,7 8,2 9,7 8 5 13 7 E 1009,9 2,5 0 0,1
21.11.2019 22:00:00 9,5 8,9 8,9 8,7 8,1 9,7 7 4 14 7 E 1009,9 3,6 0 0,1
21.11.2019 21:00:00 9,4 9,0 9,0 8,7 8,1 9,7 8 4 15 8 E 1010,0 5 0 0,1
21.11.2019 20:00:00 9,5 9,1 9,1 8,7 8,1 9,7 7 4 14 7 E 1010,0 4,0 0 0,9
21.11.2019 19:00:00 9,3 8,9 8,9 8,7 8,1 9,7 10 6 16 9 E 1010,2 2,2 0 2,6
21.11.2019 18:00:00 9,3 8,8 8,8 8,7 8,0 9,7 9 5 16 9 E 1010,4 2,0 0 3,7
21.11.2019 17:00:00 9,6 8,7 8,9 8,8 8,0 9,7 11 6 18 10 E 1010,7 3,4 0 1,6
21.11.2019 16:00:00 9,7 9,0 9,1 9,0 7,9 9,7 9 5 16 8 E 1010,8 2,9 0 0,8
21.11.2019 15:00:00 10,1 9,0 9,4 9,3 7,8 9,7 12 7 18 10 E 1010,9 5 0 0,6
21.11.2019 14:00:00 10,6 9,0 10,2 9,5 7,6 9,7 11 6 18 10 E 1011,1 7 0 0,0
21.11.2019 13:00:00 10,4 8,7 10,2 9,2 7,4 9,7 9 5 18 10 E 1011,6 7 0 0,0
21.11.2019 12:00:00 10,0 8,9 9,7 8,7 7,2 9,7 10 5 18 10 E 1012,4 5 0 0,0
21.11.2019 11:00:00 9,4 8,5 9,3 8,1 7,0 9,7 10 6 18 10 ENE 1013,0 4,2 0 0,0
21.11.2019 10:00:00 9,0 8,3 8,7 7,7 6,9 9,7 10 5 19 11 ENE 1013,3 3,2 0 0,0
21.11.2019 09:00:00 8,5 8,0 8,2 7,3 6,9 9,7 10 6 18 10 ENE 1013,4 2,7 0 0,0
21.11.2019 08:00:00 7,9 7,6 7,5 7,1 6,8 9,7 10 5 17 9 E 1013,5 1,5 0 0,0
21.11.2019 07:00:00 7,6 7,4 7,3 7,0 6,8 9,7 9 5 17 9 ENE 1013,8 0,5 0 0,0
21.11.2019 06:00:00 7,5 7,3 7,2 6,8 6,7 9,7 10 5 16 9 ENE 1014,1 0,5 0 0,0
21.11.2019 05:00:00 7,4 7,0 7,0 6,7 6,7 9,7 9 5 16 9 ENE 1014,4 1,4 0 0,0
21.11.2019 04:00:00 7,2 6,7 6,9 6,6 6,6 9,7 10 6 17 9 ENE 1014,9 2,1 0 0,0
21.11.2019 03:00:00 6,9 6,5 6,6 6,5 6,6 9,7 8 4 18 10 ENE 1015,5 1,7 0 0,0
21.11.2019 02:00:00 6,8 6,1 6,4 6,4 6,6 9,7 8 4 14 7 ENE 1016,0 2,6 0 0,0
21.11.2019 01:00:00 6,9 5,7 6,4 6,3 6,6 9,7 8 5 16 9 E 1016,3 6 0 0,0
21.11.2019 00:00:00 6,6 5,4 6,2 6,2 6,6 9,7 9 5 23 12 E 1016,7 4,7 0 0,0
20.11.2019 23:00:00 6,3 5,0 5,9 6,1 6,6 9,7 14 8 21 12 E 1016,8 4,1 0 0,0
20.11.2019 22:00:00 6,2 5,0 5,8 6,0 6,6 9,7 9 5 20 11 E 1017,2 5 0 0,0
20.11.2019 21:00:00 6,2 5,0 5,7 6,0 6,7 9,7 10 5 17 9 ENE 1017,5 5 0 0,0
20.11.2019 20:00:00 6,2 5,0 5,7 6,2 6,7 9,7 5 3 9 5 E 1017,4 5 0 0,0
20.11.2019 19:00:00 6,3 5,0 5,8 6,4 6,7 9,7 4 2 5 3 NE 1017,5 6 0 0,0
20.11.2019 18:00:00 6,3 5,1 5,8 6,4 6,7 9,7 2 1 6 3 E 1017,7 6 0 0,0
20.11.2019 17:00:00 6,3 5,0 5,9 6,6 6,7 9,7 3 2 10 5 E 1017,8 7 0 0,0
20.11.2019 16:00:00 6,4 4,9 6,0 6,8 6,7 9,7 6 3 8 4 E 1017,8 8 0 0,0
20.11.2019 15:00:00 6,4 4,8 6,3 7,0 6,6 9,7 4 2 7 4 E 1018,0 9 0 0,0
20.11.2019 14:00:00 6,3 4,6 6,5 7,2 6,5 9,8 3 2 7 4 NNE 1018,0 10 0 0,0
20.11.2019 13:00:00 6,3 4,8 6,3 7,1 6,3 9,8 6 3 8 4 W 1018,2 9 0 0,0
20.11.2019 12:00:00 6,1 4,3 6,1 6,7 6,2 9,8 3 2 6 3 SW 1018,6 10 0 0,0
20.11.2019 11:00:00 6,2 4,6 6,1 6,6 6,1 9,8 3 2 6 3 WNW 1018,8 15 0 0,0
20.11.2019 10:00:00 5,8 4,6 5,9 6,2 6,0 9,8 4 2 10 5 NW 1018,4 14 0 0,0
20.11.2019 09:00:00 5,5 4,6 5,4 5,6 6,0 9,8 3 2 8 5 NW 1018,5 9 0 0,0
20.11.2019 08:00:00 5,3 4,4 4,8 5,4 6,0 9,8 5 3 9 5 NW 1018,5 11 0 0,0
20.11.2019 07:00:00 5,4 4,3 4,8 5,4 6,0 9,8 4 2 14 8 NW 1018,5 13 0 0,0
20.11.2019 06:00:00 5,5 4,1 4,8 5,3 6,0 9,8 8 5 19 10 NNE 1018,3 19 0 0,0
20.11.2019 05:00:00 5,2 4,3 4,7 5,3 6,0 9,8 9 5 18 10 NNW 1018,5 16 0 0,1
20.11.2019 04:00:00 5,1 4,3 4,6 5,2 6,0 9,8 8 5 16 9 NW 1018,9 11 0 0,1
20.11.2019 03:00:00 5,1 4,2 4,6 5,2 5,9 9,8 9 5 13 7 NW 1019,0 11 0 0,1
20.11.2019 02:00:00 4,9 3,9 4,5 5,2 5,9 9,8 6 4 11 6 NW 1019,0 12 0 0,2
20.11.2019 01:00:00 5,1 3,7 4,4 5,1 6,0 9,8 5 3 11 6 N 1019,2 11 0 0,9
20.11.2019 00:00:00 4,9 3,6 4,3 5,1 6,0 9,8 6 4 11 6 NW 1019,2 16 0 0,0
19.11.2019 23:00:00 5,2 3,4 4,5 5,1 6,0 9,8 4 2 8 4 NNW 1019,5 19 0 0,0
19.11.2019 22:00:00 5,0 3,1 4,3 5,0 6,0 9,8 4 2 6 3 NNW 1019,6 17 0 0,0
19.11.2019 21:00:00 5,0 2,9 4,2 4,9 6,1 9,8 5 3 8 5 N 1019,8 13 0 0,0
19.11.2019 20:00:00 5,1 2,7 4,3 4,8 6,2 9,8 6 3 8 4 ENE 1019,4 25 0 0,0
19.11.2019 19:00:00 4,9 2,5 3,0 4,7 6,3 9,8 5 3 8 4 E 1019,2 24 0 0,0
19.11.2019 18:00:00 5,1 2,8 3,6 5,1 6,4 9,8 6 3 8 4 SE 1019,0 47 0 0,0
19.11.2019 17:00:00 5,5 2,8 3,0 5,3 6,5 9,8 4 2 10 6 S 1018,5 53 0 0,0
19.11.2019 16:00:00 6,1 2,9 3,3 5,9 6,5 9,8 6 3 13 7 S 1018,1 68 0 0,0
19.11.2019 15:00:00 7,9 3,5 6,4 7,1 6,4 9,8 9 5 23 13 SSW 1017,8 62 42 0,0
19.11.2019 14:00:00 8,9 3,2 9,0 7,6 6,1 9,8 19 10 27 15 SSW 1017,5 69 60 0,0
19.11.2019 13:00:00 8,7 2,8 9,3 7,4 5,8 9,8 17 9 27 15 S 1017,4 55 60 0,0
19.11.2019 12:00:00 8,0 3,0 8,6 6,8 5,6 9,8 21 11 29 16 S 1017,3 59 60 0,0
19.11.2019 11:00:00 6,9 2,3 6,3 5,2 5,4 9,8 17 9 28 15 S 1016,6 60 41 0,0
19.11.2019 10:00:00 6,6 2,4 6,2 5,0 5,4 9,8 19 10 28 15 SSW 1016,3 61 60 0,0
19.11.2019 09:00:00 6,2 1,9 5,6 4,0 5,4 9,8 16 9 29 16 SSW 1015,5 71 35 0,0
19.11.2019 08:00:00 5,5 1,3 4,1 3,5 5,5 9,8 20 11 37 20 SSW 1014,8 75 3 0,0
19.11.2019 07:00:00 5,8 0,9 4,1 3,7 5,5 9,8 25 13 41 22 S 1013,6 73 0 0,0
19.11.2019 06:00:00 5,7 1,0 4,1 3,7 5,6 9,8 26 14 43 23 S 1013,0 57 0 0,0
19.11.2019 05:00:00 4,7 1,8 3,4 3,8 5,7 9,8 18 10 29 16 S 1012,8 43 0 0,0
19.11.2019 04:00:00 4,8 2,1 3,9 3,6 5,8 9,8 20 11 32 17 SSE 1012,5 36 0 0,0
19.11.2019 03:00:00 5,0 2,2 3,8 3,7 6,0 9,8 22 12 40 21 SSE 1012,8 38 0 0,0
19.11.2019 02:00:00 4,8 2,2 3,5 3,6 6,2 9,8 23 13 36 19 SSE 1012,7 34 0 0,0
19.11.2019 01:00:00 4,6 2,4 3,0 3,7 6,4 9,8 18 10 30 16 SSE 1012,6 30 0 0,0
19.11.2019 00:00:00 4,7 2,7 2,9 3,9 6,6 9,8 15 8 26 14 SSE 1012,6 26 0 0,0
18.11.2019 23:00:00 4,9 2,9 3,2 4,2 6,9 9,8 18 10 25 13 S 1012,2 27 0 0,0
18.11.2019 22:00:00 5,6 2,5 3,7 4,6 7,2 9,8 15 8 23 12 S 1011,8 36 0 0,0
18.11.2019 21:00:00 5,7 2,7 3,4 5,3 7,4 9,8 11 6 28 15 S 1011,4 39 0 0,0
18.11.2019 20:00:00 6,9 3,7 5,0 6,3 7,6 9,9 18 10 25 13 SSW 1011,0 35 0 0,0
18.11.2019 19:00:00 8,1 5,7 7,2 7,6 7,7 9,9 19 10 33 18 SW 1010,6 28 0 0,0
18.11.2019 18:00:00 8,1 6,8 7,3 7,7 7,7 9,9 16 9 23 13 SSW 1009,6 23 0 0,4
18.11.2019 17:00:00 8,4 6,8 7,4 8,1 7,7 9,9 13 7 26 14 SSW 1008,3 18 0 0,2
18.11.2019 16:00:00 9,0 7,2 8,1 8,6 7,6 9,9 17 9 29 15 SW 1007,8 25 0 0,1
18.11.2019 15:00:00 10,4 8,1 9,3 9,0 7,5 9,9 21 11 30 16 WSW 1006,6 28 0 0,1
18.11.2019 14:00:00 10,6 9,1 9,8 9,1 7,3 9,9 12 7 20 11 E 1005,6 10 0 0,2
18.11.2019 13:00:00 11,1 8,8 10,3 9,3 7,0 9,9 11 6 18 10 E 1005,7 14 0 0,0
18.11.2019 12:00:00 10,8 8,2 10,7 9,2 6,7 9,9 12 7 24 13 E 1005,9 17 5 0,0
18.11.2019 11:00:00 9,9 7,5 10,1 8,1 6,4 9,9 16 8 26 14 E 1006,0 16 18 0,0
18.11.2019 10:00:00 8,3 6,6 8,0 6,7 6,4 9,9 15 8 23 13 E 1006,2 14 0 0,0
18.11.2019 09:00:00 7,2 5,8 6,4 5,9 6,4 9,9 13 7 20 11 E 1006,1 12 0 0,0
18.11.2019 08:00:00 6,9 5,7 5,8 5,6 6,4 9,9 11 6 21 11 E 1006,0 11 0 0,0
18.11.2019 07:00:00 7,4 6,0 6,1 5,9 6,5 9,9 12 6 25 14 E 1005,7 13 0 0,0
18.11.2019 06:00:00 7,9 6,4 6,9 6,2 6,5 9,9 19 10 28 15 E 1005,0 15 0 0,0
18.11.2019 05:00:00 8,1 6,5 6,9 6,2 6,5 9,9 14 8 24 13 E 1005,3 18 0 0,0
18.11.2019 04:00:00 8,2 6,7 7,0 6,3 6,4 9,9 17 9 29 15 E 1005,5 14 0 0,0
18.11.2019 03:00:00 8,8 7,1 7,7 6,5 6,4 9,9 16 9 25 14 E 1005,6 14 0 0,0
18.11.2019 02:00:00 8,9 7,3 7,7 6,4 6,3 9,9 14 7 21 12 ENE 1006,3 14 0 0,0
18.11.2019 01:00:00 8,4 7,2 7,4 6,2 6,3 9,9 11 6 21 11 ENE 1006,6 8 0 0,0
18.11.2019 00:00:00 8,1 7,2 6,8 5,9 6,3 9,9 14 7 24 13 ENE 1006,9 6 0 0,0
17.11.2019 23:00:00 7,7 7,0 6,6 5,8 6,3 9,9 17 9 28 15 E 1007,4 4,1 0 0,0
17.11.2019 22:00:00 7,5 6,8 6,4 5,8 6,3 10,0 16 9 28 15 E 1007,9 4,4 0 0,0
17.11.2019 21:00:00 7,4 6,6 6,4 5,9 6,3 10,0 18 10 30 16 E 1008,0 4,3 0 0,0
17.11.2019 20:00:00 7,8 6,7 6,7 6,0 6,3 10,0 19 11 34 18 E 1008,5 7 0 0,0
17.11.2019 19:00:00 8,1 6,6 7,0 6,0 6,4 10,0 21 11 36 19 E 1008,7 10 0 0,0
17.11.2019 18:00:00 8,2 6,4 6,9 6,0 6,4 10,0 14 7 22 12 ENE 1009,5 12 0 0,0
17.11.2019 17:00:00 8,5 6,2 7,1 6,4 6,4 10,0 13 7 24 13 ENE 1010,1 14 0 0,0
17.11.2019 16:00:00 9,3 6,4 7,9 7,0 6,2 10,0 13 7 26 14 ENE 1010,5 17 0 0,0
17.11.2019 15:00:00 9,7 6,4 8,8 7,4 6,0 10,0 12 7 25 13 NE 1010,9 19 33 0,0
17.11.2019 14:00:00 9,3 5,9 9,1 7,6 5,7 10,0 12 6 29 15 ENE 1011,6 18 35 0,0
17.11.2019 13:00:00 8,7 5,3 8,9 7,3 5,3 10,0 15 8 29 15 ENE 1012,0 18 59 0,0
17.11.2019 12:00:00 7,2 4,4 8,3 6,1 5,0 10,0 13 7 26 14 ENE 1013,7 17 2 0,0
17.11.2019 11:00:00 6,2 3,9 6,1 4,9 4,9 10,0 11 6 22 12 ENE 1014,7 16 0 0,0
17.11.2019 10:00:00 5,8 3,3 5,0 4,3 4,7 10,0 12 7 20 11 NE 1015,1 18 0 0,0
17.11.2019 09:00:00 4,9 2,8 4,0 3,6 4,7 10,0 9 5 16 8 ENE 1015,6 16 0 0,0
17.11.2019 08:00:00 3,1 2,2 2,7 3,1 4,6 10,0 5 3 12 6 NE 1016,0 6 0 0,0
17.11.2019 07:00:00 2,4 1,6 1,9 2,6 4,7 10,0 5 3 14 7 ENE 1016,5 6 0 0,0
17.11.2019 06:00:00 1,6 0,9 1,2 2,2 4,8 10,0 8 4 15 8 E 1016,7 4,4 0 0,0
17.11.2019 05:00:00 1,4 0,9 0,3 1,9 4,9 10,0 6 3 13 7 ENE 1016,5 4,7 0 0,0
17.11.2019 04:00:00 2,0 1,2 0,7 2,0 5,1 10,0 13 7 18 10 ESE 1016,5 8 0 0,0
17.11.2019 03:00:00 1,8 1,0 0,6 2,2 5,2 10,0 6 3 18 10 ESE 1016,6 6 0 0,0
17.11.2019 02:00:00 2,0 1,1 1,0 2,1 5,4 10,0 14 8 19 10 SE 1016,8 6 0 0,0
17.11.2019 01:00:00 1,8 0,9 -0,4 2,2 5,7 10,0 7 4 15 8 S 1016,0 10 0 0,0
17.11.2019 00:00:00 1,9 1,0 0,0 2,4 5,9 10,0 10 6 16 9 SSE 1016,2 8 0 0,0
16.11.2019 23:00:00 2,2 1,6 -0,7 2,8 6,2 10,0 4 2 7 4 SE 1015,0 9 0 0,0
16.11.2019 22:00:00 1,8 0,9 -0,7 3,2 6,5 10,0 4 2 10 5 S 1015,0 7 0 0,0
16.11.2019 21:00:00 2,8 1,7 0,1 3,8 6,8 10,0 5 3 13 7 SSE 1014,4 12 0 0,0
16.11.2019 20:00:00 4,3 2,3 2,3 4,3 7,1 10,0 8 5 21 11 SSW 1014,2 19 0 0,0
16.11.2019 19:00:00 5,1 2,7 3,5 4,9 7,3 10,0 14 8 22 12 SSW 1013,3 23 0 0,0
16.11.2019 18:00:00 5,6 3,1 3,8 5,7 7,5 10,0 13 7 23 13 SSW 1011,9 25 0 0,0
16.11.2019 17:00:00 7,0 3,4 6,1 6,8 7,7 10,0 17 9 34 19 WSW 1011,1 31 0 0,0
16.11.2019 16:00:00 7,1 4,1 6,2 7,3 7,7 10,0 23 12 42 23 SW 1010,2 27 0 0,0
16.11.2019 15:00:00 7,9 4,7 7,3 8,1 7,7 10,0 23 12 40 21 SW 1009,1 36 0 0,0
16.11.2019 14:00:00 8,7 4,9 8,2 8,6 7,6 10,0 21 11 39 21 WSW 1008,1 41 8 0,0
16.11.2019 13:00:00 9,4 5,5 9,2 9,0 7,4 10,0 23 13 40 22 SW 1006,7 35 0 0,0
16.11.2019 12:00:00 11,6 8,0 10,9 9,6 7,1 10,0 21 11 34 19 SW 1005,4 19 21 0,0
16.11.2019 11:00:00 12,2 8,6 12,6 9,3 6,8 10,0 16 8 29 16 S 1004,4 17 43 0,0
16.11.2019 10:00:00 10,6 7,7 9,8 8,1 6,6 10,0 19 10 28 15 SSE 1004,2 17 25 0,0
16.11.2019 09:00:00 9,2 7,2 8,0 6,9 6,5 10,1 8 5 17 9 ESE 1004,2 14 0 0,0
16.11.2019 08:00:00 9,1 7,2 7,7 6,6 6,5 10,1 9 5 20 11 SE 1004,2 11 0 0,3
16.11.2019 07:00:00 7,5 6,3 6,6 6,0 6,5 10,1 11 6 18 10 ESE 1003,8 9 0 0,1
16.11.2019 06:00:00 6,9 5,8 6,1 5,7 6,5 10,1 13 7 18 10 E 1003,2 7 0 0,0
16.11.2019 05:00:00 6,8 5,7 5,7 5,6 6,6 10,1 9 5 15 8 E 1004,0 6 0 0,0
16.11.2019 04:00:00 6,9 5,9 5,5 5,8 6,6 10,1 9 5 17 9 E 1004,6 5 0 0,0

tt = Température de l'air
td = dewpoint
tt 5cm = Température de l'air 5cm
tt -5cm = Température de l'air -5cm
tt -20cm = Température de l'air -20cm
tt -100cm = Température de l'air -100cm
ff = Vitesse du vent
fx = gusts
dd = Direction du vent
ppp = reduced air pressure
vv = visibility
sd = Ensoleillement
rr = Quantités de précipitations

stations d'obs. à proximité